HUMSAT-D

Last updated on Fri Feb 16 2018 09:49:21 GMT+0000 (Coordinated Universal Time)

1 39433U 13066T 18046.36720269 .00000625 00000-0 66902-4 0 9992 2 39433 97.6212 106.9122 0032340 126.8720 233.5471 14.91746863230267
UTC large
Height (km)
Speed (km/s)
/
Latitude / Longitude
Inclination (degrees)
Orbital Period (minutes)
Azimuth
Elevation
Range (km)
Doppler Factor

Next 0 passes for location: London (51.5072 / 0.1276)

Sorry there are no passes over London.